Location: Helsinki
(60.1699°N, 24.9384°E)
Time: 22:32:31
(UTC+03:00)

Envisat - Visible Passes

Search period start: 28 September 2020 00:00
Search period end: 08 October 2020 00:00
Orbit: 764 x 766 km, 98.1° (Epoch: 28 September)

Date Brightness Start Highest point End Pass type
(mag) Time Alt. Az. Time Alt. Az. Time Alt. Az.
28 Sep 6.0 06:15:32 10° NE 06:19:20 21° E 06:23:06 10° SE visible
29 Sep 6.5 05:40:03 10° NE 05:41:55 12° ENE 05:43:45 10° E visible
29 Sep 6.6 20:25:02 10° WSW 20:27:06 12° WNW 20:29:10 10° NW visible
30 Sep 5.4 06:40:38 10° NNE 06:45:06 29° E 06:49:31 10° SSE visible
30 Sep 6.0 19:45:50 10° SW 19:49:41 21° W 19:53:33 10° NW visible
01 Oct 6.1 06:04:24 10° NE 06:07:48 18° E 06:11:11 10° SE visible
02 Oct 6.4 20:12:44 10° WSW 20:15:31 15° W 20:18:20 10° NW visible
03 Oct 5.7 06:29:23 10° NNE 06:33:36 25° E 06:37:48 10° SE visible
03 Oct 5.7 19:34:01 10° SW 19:38:10 25° W 19:42:21 10° NW visible
04 Oct 6.3 05:53:22 10° NE 05:56:15 15° E 05:59:07 10° ESE visible
05 Oct 6.2 20:00:40 10° SW 20:03:58 17° W 20:07:18 10° NW visible
06 Oct 5.9 06:18:11 10° NE 06:22:05 22° E 06:25:59 10° SE visible
06 Oct 5.4 19:22:16 10° SSW 19:26:40 29° W 19:31:06 10° NNW visible
07 Oct 6.5 05:42:29 10° NE 05:44:41 13° ENE 05:46:52 10° ESE visible
07 Oct 6.6 20:28:10 10° W 20:29:53 12° WNW 20:31:35 10° WNW visible
